sat.trackr.live / text

‹ back to catalog

STARLINK-35840

NORAD 66834 · 2025-280P

PAYLOAD ACTIVE UNKNOWN

§ Identity

Operator
Country
US
Launch date
2025-12-02
Launch site
AFWTR
Launch vehicle
Mass (kg)
RCS (m²)

Purposes: comms

External: N2YO · Heavens-Above · Gunter

§ Orbital elements

Epoch: 2026-05-25T03:36:34.587648Z

Period
96.11 min
Inclination
70.0009°
Eccentricity
0.0004063
Mean motion
14.98337786 rev/d
Perigee alt
569.2 km
Apogee alt
574.9 km
Semi-major
6,950.2 km
B*
2.6257e-4
RAAN
141.4867°
Arg perigee
267.5690°
Mean anomaly
92.5004°
Rev number
2,753

§ Raw data

STARLINK-358401 66834U 25280P   26145.15040032  .00003042  00000+0  26257-3 0  99902 66834  70.0009 141.4867 0004063 267.5690  92.5004 14.98337786 27537

JSON: /api/v1/satellites/66834 · /tle

For live sub-satellite position, see the globe view (requires WebGL).

§ Visibility from observer

Set your observer location to see the next 7 days of passes ≥ 10°. The values pass through the URL so the page stays shareable.

No JS? Fill the form by hand. The geolocation button needs JavaScript.